Station Historical Data
Daily Summary for May 31, 2017 Units:  English    Metric   Both
« Previous Day
Next Day »
Daily Weekly Monthly Yearly Custom
  High: Low: Average:
Temperature: 72.4 °F 54.7 °F 64 °F
Dew Point: 53.5 °F 46.0 °F 49.9 °F
Humidity: 81% 41% 61%
Wind Speed: 17.0mph 0.0mph 5.3mph
Wind Gust: 24.0mph - -
Wind- - SW
Pressure: 29.94 in 29.85 in -
Precipitation: 0.00 in    
Historical Graphs
 
 
Tabular Data for May 31, 2017
Time Temperature Dew Point Pressure Wind Wind Speed Wind Gust Humidity Rainfall Rate (Hourly)
00:04 64.1 °F 48.1 °F 29.90 in SW 2.0 mph 7.0 mph 56% 0.00 in
00:09 64.2 °F 47.7 °F 29.90 in SW 3.0 mph 11.0 mph 55% 0.00 in
00:14 64.3 °F 47.8 °F 29.90 in SSW 2.0 mph 7.0 mph 55% 0.00 in
00:19 64.6 °F 47.6 °F 29.90 in WSW 3.0 mph 7.0 mph 54% 0.00 in
00:24 64.8 °F 47.8 °F 29.90 in SW 3.0 mph 8.0 mph 54% 0.00 in
00:29 65.1 °F 47.5 °F 29.91 in WSW 4.0 mph 9.0 mph 53% 0.00 in
00:34 65.6 °F 47.5 °F 29.91 in West 5.0 mph 15.0 mph 52% 0.00 in
00:39 65.8 °F 48.2 °F 29.91 in SW 7.0 mph 15.0 mph 53% 0.00 in
00:44 65.6 °F 48.0 °F 29.91 in SW 6.0 mph 16.0 mph 53% 0.00 in
00:49 65.3 °F 48.7 °F 29.90 in SW 6.0 mph 16.0 mph 55% 0.00 in
00:54 64.6 °F 48.5 °F 29.91 in SW 6.0 mph 15.0 mph 56% 0.00 in
00:59 64.1 °F 49.0 °F 29.91 in SW 4.0 mph 10.0 mph 58% 0.00 in
01:09 63.5 °F 49.4 °F 29.91 in WNW 6.0 mph 11.0 mph 60% 0.00 in
01:14 63.4 °F 49.3 °F 29.91 in SW 5.0 mph 12.0 mph 60% 0.00 in
01:19 63.0 °F 49.3 °F 29.91 in SW 5.0 mph 12.0 mph 61% 0.00 in
01:24 62.8 °F 49.1 °F 29.91 in SSW 3.0 mph 9.0 mph 61% 0.00 in
01:29 62.6 °F 49.0 °F 29.91 in SW 5.0 mph 10.0 mph 61% 0.00 in
01:34 62.4 °F 49.2 °F 29.91 in SW 8.0 mph 10.0 mph 62% 0.00 in
01:39 62.2 °F 49.0 °F 29.91 in SW 4.0 mph 10.0 mph 62% 0.00 in
01:44 62.1 °F 48.9 °F 29.91 in SW 4.0 mph 10.0 mph 62% 0.00 in
01:49 62.0 °F 48.8 °F 29.91 in SSW 7.0 mph 10.0 mph 62% 0.00 in
01:54 62.2 °F 49.0 °F 29.91 in WSW 2.0 mph 7.0 mph 62% 0.00 in
01:59 62.1 °F 48.9 °F 29.92 in WSW 3.0 mph 12.0 mph 62% 0.00 in
02:04 62.1 °F 49.4 °F 29.92 in SW 3.0 mph 9.0 mph 63% 0.00 in
02:09 62.2 °F 49.4 °F 29.92 in West 6.0 mph 15.0 mph 63% 0.00 in
02:14 62.2 °F 49.4 °F 29.92 in WSW 6.0 mph 15.0 mph 63% 0.00 in
02:19 62.0 °F 50.1 °F 29.92 in WSW 6.0 mph 11.0 mph 65% 0.00 in
02:24 61.5 °F 50.4 °F 29.92 in WSW 6.0 mph 11.0 mph 67% 0.00 in
02:29 61.0 °F 50.4 °F 29.92 in WSW 3.0 mph 9.0 mph 68% 0.00 in
02:34 60.7 °F 50.5 °F 29.92 in West 5.0 mph 11.0 mph 69% 0.00 in
02:39 60.4 °F 50.6 °F 29.92 in WSW 5.0 mph 11.0 mph 70% 0.00 in
02:44 60.1 °F 50.7 °F 29.92 in WSW 4.0 mph 10.0 mph 71% 0.00 in
02:49 59.9 °F 50.5 °F 29.93 in WSW 4.0 mph 10.0 mph 71% 0.00 in
02:54 59.9 °F 50.5 °F 29.93 in WSW 2.0 mph 7.0 mph 71% 0.00 in
02:59 59.7 °F 50.7 °F 29.92 in WSW 2.0 mph 6.0 mph 72% 0.00 in
03:04 59.6 °F 50.6 °F 29.93 in SW 2.0 mph 7.0 mph 72% 0.00 in
03:09 59.6 °F 50.9 °F 29.93 in WSW 3.0 mph 7.0 mph 73% 0.00 in
03:14 59.3 °F 50.6 °F 29.92 in WSW 3.0 mph 7.0 mph 73% 0.00 in
03:19 59.0 °F 50.7 °F 29.92 in WSW 2.0 mph 4.0 mph 74% 0.00 in
03:24 58.6 °F 50.3 °F 29.92 in WSW 2.0 mph 4.0 mph 74% 0.00 in
03:29 58.1 °F 50.2 °F 29.92 in SW 2.0 mph 4.0 mph 75% 0.00 in
03:34 57.8 °F 50.3 °F 29.92 in Calm   3.0 mph 76% 0.00 in
03:39 57.4 °F 49.9 °F 29.92 in SW 1.0 mph 3.0 mph 76% 0.00 in
03:49 57.8 °F 50.3 °F 29.92 in WSW 2.0 mph 6.0 mph 76% 0.00 in
03:54 57.8 °F 50.3 °F 29.92 in Calm   3.0 mph 76% 0.00 in
03:59 57.8 °F 50.3 °F 29.92 in SW 2.0 mph 5.0 mph 76% 0.00 in
04:04 57.8 °F 50.3 °F 29.92 in SW 2.0 mph 5.0 mph 76% 0.00 in
04:09 57.8 °F 50.3 °F 29.92 in SW 2.0 mph 5.0 mph 76% 0.00 in
04:14 57.7 °F 50.5 °F 29.92 in SW 2.0 mph 4.0 mph 77% 0.00 in
04:19 57.5 °F 50.3 °F 29.92 in SW 2.0 mph 4.0 mph 77% 0.00 in
04:24 57.2 °F 50.4 °F 29.92 in SW 2.0 mph 5.0 mph 78% 0.00 in
04:29 57.0 °F 50.2 °F 29.92 in SW 2.0 mph 6.0 mph 78% 0.00 in
04:34 56.8 °F 50.0 °F 29.92 in SSW 3.0 mph 4.0 mph 78% 0.00 in
04:39 56.9 °F 50.5 °F 29.92 in SW 2.0 mph 4.0 mph 79% 0.00 in
04:44 56.7 °F 50.3 °F 29.92 in SW 2.0 mph 4.0 mph 79% 0.00 in
04:49 56.5 °F 50.1 °F 29.92 in SSW 1.0 mph 5.0 mph 79% 0.00 in
04:54 56.5 °F 50.1 °F 29.92 in SSW 2.0 mph 6.0 mph 79% 0.00 in
04:59 56.3 °F 49.9 °F 29.92 in Calm   3.0 mph 79% 0.00 in
05:04 55.9 °F 49.8 °F 29.92 in Calm   3.0 mph 80% 0.00 in
05:09 55.5 °F 49.4 °F 29.92 in Calm   3.0 mph 80% 0.00 in
05:14 55.2 °F 49.1 °F 29.92 in Calm     80% 0.00 in
05:19 55.0 °F 49.3 °F 29.92 in Calm     81% 0.00 in
05:24 54.7 °F 49.0 °F 29.92 in Calm     81% 0.00 in
05:29 54.7 °F 48.6 °F 29.92 in Calm     80% 0.00 in
05:34 54.7 °F 48.6 °F 29.92 in South 1.0 mph 4.0 mph 80% 0.00 in
05:39 54.8 °F 48.4 °F 29.92 in Calm   4.0 mph 79% 0.00 in
05:44 54.9 °F 48.2 °F 29.92 in South 1.0 mph 5.0 mph 78% 0.00 in
05:49 55.0 °F 47.9 °F 29.92 in South 2.0 mph 4.0 mph 77% 0.00 in
05:59 55.1 °F 47.7 °F 29.92 in South 1.0 mph 5.0 mph 76% 0.00 in
06:04 55.0 °F 47.6 °F 29.92 in Calm   5.0 mph 76% 0.00 in
06:09 54.9 °F 47.5 °F 29.92 in South 2.0 mph 5.0 mph 76% 0.00 in
06:14 54.9 °F 47.5 °F 29.92 in SSW 1.0 mph 4.0 mph 76% 0.00 in
06:19 54.9 °F 47.5 °F 29.92 in South 1.0 mph 4.0 mph 76% 0.00 in
06:24 55.1 °F 47.7 °F 29.92 in South 1.0 mph 4.0 mph 76% 0.00 in
06:29 55.2 °F 47.8 °F 29.92 in South 3.0 mph 3.0 mph 76% 0.00 in
06:34 55.4 °F 47.6 °F 29.92 in South 2.0 mph 4.0 mph 75% 0.00 in
06:39 55.9 °F 48.1 °F 29.92 in South 2.0 mph 6.0 mph 75% 0.00 in
06:44 56.4 °F 48.2 °F 29.92 in SSE 2.0 mph 6.0 mph 74% 0.00 in
06:49 56.8 °F 48.2 °F 29.92 in South 3.0 mph 6.0 mph 73% 0.00 in
06:54 57.2 °F 48.3 °F 29.92 in South 3.0 mph 6.0 mph 72% 0.00 in
06:59 57.7 °F 48.4 °F 29.92 in South 2.0 mph 6.0 mph 71% 0.00 in
07:04 58.2 °F 48.8 °F 29.92 in Calm   4.0 mph 71% 0.00 in
07:09 58.9 °F 49.1 °F 29.92 in SSW 2.0 mph 3.0 mph 70% 0.00 in
07:14 59.0 °F 48.8 °F 29.92 in SSW 2.0 mph 6.0 mph 69% 0.00 in
07:19 59.3 °F 49.1 °F 29.92 in South 1.0 mph 4.0 mph 69% 0.00 in
07:24 59.7 °F 48.7 °F 29.92 in South 2.0 mph 7.0 mph 67% 0.00 in
07:29 59.7 °F 48.7 °F 29.92 in SSW 3.0 mph 4.0 mph 67% 0.00 in
07:34 59.6 °F 49.0 °F 29.92 in SSW 2.0 mph 6.0 mph 68% 0.00 in
07:39 59.7 °F 49.1 °F 29.92 in SSW 2.0 mph 6.0 mph 68% 0.00 in
07:44 60.0 °F 49.4 °F 29.92 in SSW 2.0 mph 5.0 mph 68% 0.00 in
07:49 60.5 °F 49.5 °F 29.92 in SSW 2.0 mph 5.0 mph 67% 0.00 in
07:54 60.9 °F 49.5 °F 29.92 in SSW 2.0 mph 4.0 mph 66% 0.00 in
07:59 61.1 °F 49.2 °F 29.92 in SW 2.0 mph 5.0 mph 65% 0.00 in
08:04 61.3 °F 49.4 °F 29.92 in SW 2.0 mph 5.0 mph 65% 0.00 in
08:09 62.2 °F 49.9 °F 29.92 in Calm   4.0 mph 64% 0.00 in
08:14 62.8 °F 49.1 °F 29.92 in SSW 1.0 mph 9.0 mph 61% 0.00 in
08:19 63.4 °F 49.3 °F 29.92 in SSW 4.0 mph 6.0 mph 60% 0.00 in
08:24 63.5 °F 49.4 °F 29.93 in WSW 2.0 mph 8.0 mph 60% 0.00 in
08:29 64.5 °F 49.8 °F 29.93 in SSW 7.0 mph 11.0 mph 59% 0.00 in
08:34 64.9 °F 49.3 °F 29.92 in South 4.0 mph 11.0 mph 57% 0.00 in
08:39 65.6 °F 50.0 °F 29.92 in SW 8.0 mph 14.0 mph 57% 0.00 in
08:44 65.0 °F 48.9 °F 29.93 in SW 6.0 mph 14.0 mph 56% 0.00 in
08:49 64.5 °F 48.9 °F 29.93 in SW 7.0 mph 15.0 mph 57% 0.00 in
08:54 63.9 °F 48.4 °F 29.93 in SW 7.0 mph 17.0 mph 57% 0.00 in
08:59 63.6 °F 48.5 °F 29.94 in WSW 8.0 mph 17.0 mph 58% 0.00 in
09:04 63.2 °F 49.1 °F 29.93 in SW 8.0 mph 17.0 mph 60% 0.00 in
09:09 62.6 °F 49.4 °F 29.94 in SW 7.0 mph 18.0 mph 62% 0.00 in
09:14 62.0 °F 50.1 °F 29.93 in SSW 7.0 mph 14.0 mph 65% 0.00 in
09:19 62.0 °F 49.7 °F 29.93 in SSW 7.0 mph 18.0 mph 64% 0.00 in
09:24 62.5 °F 50.6 °F 29.93 in SW 5.0 mph 13.0 mph 65% 0.00 in
09:29 63.2 °F 50.4 °F 29.92 in SW 8.0 mph 13.0 mph 63% 0.00 in
09:34 64.7 °F 50.9 °F 29.92 in SW 7.0 mph 13.0 mph 61% 0.00 in
09:39 65.9 °F 51.2 °F 29.92 in SW 7.0 mph 13.0 mph 59% 0.00 in
09:44 66.8 °F 50.6 °F 29.92 in SW 6.0 mph 13.0 mph 56% 0.00 in
09:49 67.4 °F 50.7 °F 29.92 in SW 6.0 mph 14.0 mph 55% 0.00 in
09:54 67.7 °F 50.9 °F 29.92 in SW 6.0 mph 14.0 mph 55% 0.00 in
09:59 67.4 °F 47.6 °F 29.92 in South 10.0 mph 17.0 mph 49% 0.00 in
10:04 67.4 °F 48.1 °F 29.92 in WSW 11.0 mph 15.0 mph 50% 0.00 in
10:09 67.9 °F 48.6 °F 29.92 in SW 8.0 mph 15.0 mph 50% 0.00 in
10:14 68.0 °F 48.1 °F 29.91 in SW 7.0 mph 14.0 mph 49% 0.00 in
10:24 69.3 °F 48.8 °F 29.91 in SW 5.0 mph 15.0 mph 48% 0.00 in
10:29 69.1 °F 49.7 °F 29.91 in SW 6.0 mph 15.0 mph 50% 0.00 in
10:34 69.5 °F 48.4 °F 29.91 in WSW 5.0 mph 11.0 mph 47% 0.00 in
10:39 69.2 °F 49.2 °F 29.91 in WSW 6.0 mph 13.0 mph 49% 0.00 in
10:44 70.0 °F 48.8 °F 29.91 in SW 6.0 mph 13.0 mph 47% 0.00 in
10:49 69.7 °F 48.6 °F 29.91 in SW 6.0 mph 16.0 mph 47% 0.00 in
10:54 70.3 °F 49.1 °F 29.91 in WSW 7.0 mph 16.0 mph 47% 0.00 in
10:59 70.6 °F 47.6 °F 29.91 in WSW 5.0 mph 15.0 mph 44% 0.00 in
11:04 70.7 °F 48.3 °F 29.90 in SW 8.0 mph 16.0 mph 45% 0.00 in
11:09 71.0 °F 48.6 °F 29.91 in SW 9.0 mph 14.0 mph 45% 0.00 in
11:14 71.0 °F 48.0 °F 29.90 in WSW 7.0 mph 14.0 mph 44% 0.00 in
11:19 71.0 °F 48.0 °F 29.90 in SW 8.0 mph 20.0 mph 44% 0.00 in
11:24 71.3 °F 47.6 °F 29.90 in SW 9.0 mph 20.0 mph 43% 0.00 in
11:29 71.7 °F 48.0 °F 29.90 in WSW 9.0 mph 16.0 mph 43% 0.00 in
11:34 71.7 °F 46.7 °F 29.90 in WSW 8.0 mph 16.0 mph 41% 0.00 in
11:39 71.7 °F 48.6 °F 29.91 in SSW 12.0 mph 22.0 mph 44% 0.00 in
11:44 71.5 °F 47.2 °F 29.91 in SW 9.0 mph 22.0 mph 42% 0.00 in
11:49 70.8 °F 47.2 °F 29.91 in SW 9.0 mph 15.0 mph 43% 0.00 in
11:54 70.2 °F 46.0 °F 29.90 in WSW 6.0 mph 22.0 mph 42% 0.00 in
11:59 70.1 °F 46.6 °F 29.90 in WNW 6.0 mph 24.0 mph 43% 0.00 in
12:04 71.0 °F 48.0 °F 29.90 in West 7.0 mph 13.0 mph 44% 0.00 in
12:09 71.3 °F 48.3 °F 29.90 in WSW 6.0 mph 17.0 mph 44% 0.00 in
12:14 71.4 °F 48.3 °F 29.90 in WSW 8.0 mph 17.0 mph 44% 0.00 in
12:19 71.4 °F 48.3 °F 29.90 in WSW 8.0 mph 16.0 mph 44% 0.00 in
12:24 71.0 °F 47.4 °F 29.90 in WSW 8.0 mph 17.0 mph 43% 0.00 in
12:29 69.4 °F 47.7 °F 29.90 in WSW 9.0 mph 19.0 mph 46% 0.00 in
12:34 70.0 °F 49.4 °F 29.90 in SW 17.0 mph 18.0 mph 48% 0.00 in
12:39 69.9 °F 50.4 °F 29.90 in WNW 5.0 mph 19.0 mph 50% 0.00 in
12:44 69.4 °F 48.3 °F 29.90 in WSW 10.0 mph 20.0 mph 47% 0.00 in
12:49 69.6 °F 48.5 °F 29.90 in WSW 10.0 mph 20.0 mph 47% 0.00 in
12:54 69.7 °F 49.1 °F 29.90 in WSW 8.0 mph 19.0 mph 48% 0.00 in
12:59 70.3 °F 49.1 °F 29.89 in WSW 6.0 mph 21.0 mph 47% 0.00 in
13:04 70.1 °F 50.0 °F 29.89 in SSW 7.0 mph 17.0 mph 49% 0.00 in
13:09 70.0 °F 49.4 °F 29.90 in WSW 9.0 mph 23.0 mph 48% 0.00 in
13:14 69.3 °F 50.4 °F 29.89 in SW 10.0 mph 23.0 mph 51% 0.00 in
13:19 69.1 °F 49.7 °F 29.89 in SSW 6.0 mph 18.0 mph 50% 0.00 in
13:24 69.6 °F 51.2 °F 29.89 in SW 5.0 mph 15.0 mph 52% 0.00 in
13:29 69.8 °F 51.4 °F 29.89 in SW 5.0 mph 13.0 mph 52% 0.00 in
13:34 70.3 °F 49.7 °F 29.89 in West 8.0 mph 16.0 mph 48% 0.00 in
13:39 70.6 °F 51.1 °F 29.88 in SW 4.0 mph 14.0 mph 50% 0.00 in
13:44 71.1 °F 50.4 °F 29.88 in WSW 7.0 mph 17.0 mph 48% 0.00 in
13:49 70.3 °F 49.7 °F 29.88 in WSW 8.0 mph 17.0 mph 48% 0.00 in
13:54 70.6 °F 50.5 °F 29.87 in WSW 8.0 mph 15.0 mph 49% 0.00 in
13:59 70.7 °F 50.0 °F 29.87 in WSW 7.0 mph 15.0 mph 48% 0.00 in
14:04 70.8 °F 49.6 °F 29.87 in West 7.0 mph 14.0 mph 47% 0.00 in
14:09 71.8 °F 50.5 °F 29.86 in SW 4.0 mph 13.0 mph 47% 0.00 in
14:14 72.4 °F 51.0 °F 29.86 in WSW 6.0 mph 13.0 mph 47% 0.00 in
14:19 72.1 °F 49.0 °F 29.86 in SW 8.0 mph 15.0 mph 44% 0.00 in
14:24 71.7 °F 48.0 °F 29.86 in West 8.0 mph 14.0 mph 43% 0.00 in
14:29 71.2 °F 47.6 °F 29.86 in SW 13.0 mph 18.0 mph 43% 0.00 in
14:34 71.3 °F 48.3 °F 29.86 in SW 15.0 mph 18.0 mph 44% 0.00 in
14:39 71.5 °F 48.4 °F 29.86 in West 8.0 mph 17.0 mph 44% 0.00 in
14:44 71.9 °F 48.8 °F 29.86 in WSW 8.0 mph 19.0 mph 44% 0.00 in
14:49 71.3 °F 47.6 °F 29.86 in WSW 9.0 mph 19.0 mph 43% 0.00 in
14:54 71.6 °F 50.3 °F 29.86 in WSW 9.0 mph 17.0 mph 47% 0.00 in
14:59 72.2 °F 49.1 °F 29.86 in WSW 8.0 mph 17.0 mph 44% 0.00 in
15:04 71.5 °F 48.4 °F 29.86 in WSW 8.0 mph 16.0 mph 44% 0.00 in
15:09 71.4 °F 48.9 °F 29.86 in WSW 9.0 mph 18.0 mph 45% 0.00 in
15:14 70.7 °F 48.3 °F 29.86 in SW 15.0 mph 19.0 mph 45% 0.00 in
15:19 70.8 °F 49.6 °F 29.86 in WSW 9.0 mph 17.0 mph 47% 0.00 in
15:24 70.8 °F 50.1 °F 29.86 in WSW 13.0 mph 19.0 mph 48% 0.00 in
15:29 70.3 °F 50.2 °F 29.87 in WNW 13.0 mph 20.0 mph 49% 0.00 in
15:39 69.0 °F 51.2 °F 29.86 in SW 7.0 mph 18.0 mph 53% 0.00 in
15:44 69.5 °F 51.6 °F 29.86 in WSW 9.0 mph 18.0 mph 53% 0.00 in
15:49 69.1 °F 51.8 °F 29.86 in WSW 9.0 mph 17.0 mph 54% 0.00 in
15:54 68.4 °F 51.6 °F 29.86 in WSW 10.0 mph 21.0 mph 55% 0.00 in
15:59 68.7 °F 51.4 °F 29.86 in WNW 13.0 mph 22.0 mph 54% 0.00 in
16:04 69.0 °F 52.6 °F 29.86 in SW 4.0 mph 18.0 mph 56% 0.00 in
16:09 68.7 °F 51.4 °F 29.86 in West 12.0 mph 20.0 mph 54% 0.00 in
16:14 68.9 °F 53.0 °F 29.86 in WSW 10.0 mph 20.0 mph 57% 0.00 in
16:19 68.9 °F 52.6 °F 29.86 in WSW 10.0 mph 19.0 mph 56% 0.00 in
16:24 69.2 °F 52.3 °F 29.86 in WSW 10.0 mph 22.0 mph 55% 0.00 in
16:29 69.5 °F 53.1 °F 29.86 in WSW 6.0 mph 15.0 mph 56% 0.00 in
16:34 69.5 °F 52.6 °F 29.86 in West 9.0 mph 19.0 mph 55% 0.00 in
16:39 68.8 °F 52.0 °F 29.86 in WNW 14.0 mph 20.0 mph 55% 0.00 in
16:44 69.0 °F 51.7 °F 29.86 in WSW 10.0 mph 20.0 mph 54% 0.00 in
16:49 68.9 °F 53.5 °F 29.86 in WSW 9.0 mph 19.0 mph 58% 0.00 in
16:54 68.5 °F 52.2 °F 29.86 in WSW 9.0 mph 22.0 mph 56% 0.00 in
16:59 68.7 °F 51.9 °F 29.85 in SW 9.0 mph 16.0 mph 55% 0.00 in
17:04 68.6 °F 51.3 °F 29.85 in SW 5.0 mph 19.0 mph 54% 0.00 in
17:09 69.0 °F 51.2 °F 29.85 in SW 11.0 mph 17.0 mph 53% 0.00 in
17:14 68.9 °F 49.5 °F 29.85 in WSW 9.0 mph 18.0 mph 50% 0.00 in
17:19 68.8 °F 49.9 °F 29.85 in WSW 10.0 mph 20.0 mph 51% 0.00 in
17:24 68.7 °F 49.8 °F 29.85 in WSW 9.0 mph 21.0 mph 51% 0.00 in
17:29 68.4 °F 50.6 °F 29.85 in SW 9.0 mph 21.0 mph 53% 0.00 in
17:34 68.1 °F 50.3 °F 29.85 in WSW 9.0 mph 22.0 mph 53% 0.00 in
17:39 67.7 °F 50.5 °F 29.85 in SW 7.0 mph 18.0 mph 54% 0.00 in
17:44 67.9 °F 51.1 °F 29.85 in WSW 8.0 mph 22.0 mph 55% 0.00 in
17:49 67.6 °F 50.4 °F 29.85 in WNW 6.0 mph 19.0 mph 54% 0.00 in
17:54 67.1 °F 50.9 °F 29.85 in West 8.0 mph 17.0 mph 56% 0.00 in
17:59 67.1 °F 50.9 °F 29.85 in SW 6.0 mph 17.0 mph 56% 0.00 in
18:04 67.2 °F 51.0 °F 29.85 in WSW 6.0 mph 20.0 mph 56% 0.00 in
18:09 67.0 °F 50.8 °F 29.85 in SW 9.0 mph 16.0 mph 56% 0.00 in
18:14 66.6 °F 50.9 °F 29.85 in WSW 9.0 mph 19.0 mph 57% 0.00 in
18:19 66.4 °F 51.6 °F 29.85 in WSW 9.0 mph 19.0 mph 59% 0.00 in
18:24 66.3 °F 51.5 °F 29.85 in WSW 8.0 mph 15.0 mph 59% 0.00 in
18:29 66.1 °F 51.4 °F 29.85 in WSW 8.0 mph 16.0 mph 59% 0.00 in
18:34 66.0 °F 51.3 °F 29.85 in WSW 8.0 mph 17.0 mph 59% 0.00 in
18:39 65.7 °F 51.4 °F 29.85 in SW 12.0 mph 16.0 mph 60% 0.00 in
18:44 65.7 °F 51.0 °F 29.86 in WSW 8.0 mph 15.0 mph 59% 0.00 in
18:49 65.8 °F 51.1 °F 29.86 in WSW 8.0 mph 19.0 mph 59% 0.00 in
18:54 65.8 °F 51.1 °F 29.86 in WSW 5.0 mph 15.0 mph 59% 0.00 in
18:59 65.7 °F 50.5 °F 29.86 in SW 6.0 mph 16.0 mph 58% 0.00 in
19:04 65.4 °F 50.7 °F 29.86 in NW 7.0 mph 16.0 mph 59% 0.00 in
19:09 65.2 °F 50.5 °F 29.86 in WSW 6.0 mph 15.0 mph 59% 0.00 in
19:14 64.8 °F 51.0 °F 29.86 in WNW 9.0 mph 14.0 mph 61% 0.00 in
19:19 64.4 °F 51.1 °F 29.86 in WSW 9.0 mph 16.0 mph 62% 0.00 in
19:24 64.3 °F 51.0 °F 29.86 in SW 8.0 mph 16.0 mph 62% 0.00 in
19:29 64.1 °F 51.2 °F 29.86 in SW 14.0 mph 16.0 mph 63% 0.00 in
19:34 63.9 °F 51.1 °F 29.86 in WSW 10.0 mph 15.0 mph 63% 0.00 in
19:39 63.8 °F 51.0 °F 29.86 in SW 6.0 mph 15.0 mph 63% 0.00 in
19:44 63.7 °F 50.9 °F 29.86 in SSW 7.0 mph 16.0 mph 63% 0.00 in
19:49 63.6 °F 51.2 °F 29.87 in WSW 7.0 mph 16.0 mph 64% 0.00 in
19:54 63.4 °F 51.0 °F 29.86 in WSW 6.0 mph 13.0 mph 64% 0.00 in
19:59 63.1 °F 50.7 °F 29.86 in WSW 6.0 mph 11.0 mph 64% 0.00 in
20:04 63.0 °F 51.0 °F 29.86 in WSW 6.0 mph 12.0 mph 65% 0.00 in
20:09 62.7 °F 51.2 °F 29.86 in WSW 6.0 mph 12.0 mph 66% 0.00 in
20:14 62.4 °F 50.9 °F 29.86 in WSW 6.0 mph 13.0 mph 66% 0.00 in
20:19 62.1 °F 51.0 °F 29.86 in WSW 5.0 mph 13.0 mph 67% 0.00 in
20:24 62.1 °F 51.0 °F 29.86 in WNW 2.0 mph 12.0 mph 67% 0.00 in
20:29 61.9 °F 50.8 °F 29.86 in West 2.0 mph 9.0 mph 67% 0.00 in
20:34 61.9 °F 50.8 °F 29.86 in WSW 4.0 mph 7.0 mph 67% 0.00 in
20:39 61.8 °F 51.1 °F 29.86 in WSW 2.0 mph 7.0 mph 68% 0.00 in
20:44 62.0 °F 50.9 °F 29.86 in WNW 4.0 mph 9.0 mph 67% 0.00 in
20:49 62.1 °F 50.6 °F 29.86 in WSW 4.0 mph 9.0 mph 66% 0.00 in
20:54 62.2 °F 50.3 °F 29.86 in WSW 3.0 mph 9.0 mph 65% 0.00 in
20:59 62.2 °F 50.3 °F 29.87 in WSW 3.0 mph 9.0 mph 65% 0.00 in
21:04 62.2 °F 50.3 °F 29.87 in WSW 3.0 mph 7.0 mph 65% 0.00 in
21:09 62.1 °F 49.8 °F 29.87 in WSW 3.0 mph 7.0 mph 64% 0.00 in
21:14 62.2 °F 49.9 °F 29.87 in West 7.0 mph 8.0 mph 64% 0.00 in
21:19 62.3 °F 49.5 °F 29.87 in SW 4.0 mph 9.0 mph 63% 0.00 in
21:24 62.3 °F 50.0 °F 29.88 in WSW 3.0 mph 9.0 mph 64% 0.00 in
21:29 61.9 °F 50.4 °F 29.88 in West 4.0 mph 7.0 mph 66% 0.00 in
21:34 61.8 °F 50.3 °F 29.88 in SW 3.0 mph 7.0 mph 66% 0.00 in
21:39 61.4 °F 50.3 °F 29.88 in SW 4.0 mph 7.0 mph 67% 0.00 in
21:49 60.7 °F 51.2 °F 29.89 in SW 3.0 mph 6.0 mph 71% 0.00 in
21:54 60.6 °F 51.1 °F 29.88 in SW 3.0 mph 8.0 mph 71% 0.00 in
21:59 60.4 °F 51.3 °F 29.88 in SW 3.0 mph 8.0 mph 72% 0.00 in
22:04 60.4 °F 51.7 °F 29.89 in WSW 3.0 mph 7.0 mph 73% 0.00 in
22:09 60.2 °F 51.5 °F 29.89 in SW 3.0 mph 7.0 mph 73% 0.00 in
22:14 60.0 °F 52.1 °F 29.89 in SW 3.0 mph 7.0 mph 75% 0.00 in
22:19 59.9 °F 52.0 °F 29.89 in SSW 2.0 mph 6.0 mph 75% 0.00 in
22:24 59.8 °F 51.9 °F 29.89 in WSW 3.0 mph 6.0 mph 75% 0.00 in
22:29 59.7 °F 51.8 °F 29.90 in West 1.0 mph 7.0 mph 75% 0.00 in
22:34 59.9 °F 52.0 °F 29.90 in SW 2.0 mph 4.0 mph 75% 0.00 in
22:39 59.9 °F 52.0 °F 29.90 in SW 2.0 mph 5.0 mph 75% 0.00 in
22:44 59.9 °F 52.0 °F 29.90 in SW 3.0 mph 4.0 mph 75% 0.00 in
22:49 59.8 °F 51.9 °F 29.90 in SW 2.0 mph 4.0 mph 75% 0.00 in
22:54 59.7 °F 51.8 °F 29.90 in SW 3.0 mph 6.0 mph 75% 0.00 in
22:59 59.6 °F 52.0 °F 29.90 in SW 3.0 mph 6.0 mph 76% 0.00 in
23:04 59.5 °F 51.9 °F 29.90 in WSW 2.0 mph 5.0 mph 76% 0.00 in
23:09 59.2 °F 51.6 °F 29.90 in WSW 1.0 mph 3.0 mph 76% 0.00 in
23:14 58.9 °F 51.7 °F 29.90 in WSW 1.0 mph 3.0 mph 77% 0.00 in
23:19 58.8 °F 51.6 °F 29.90 in Calm   4.0 mph 77% 0.00 in
23:24 58.7 °F 51.5 °F 29.90 in WSW 3.0 mph 4.0 mph 77% 0.00 in
23:29 58.5 °F 51.7 °F 29.90 in Calm   5.0 mph 78% 0.00 in
23:34 58.2 °F 51.4 °F 29.90 in Calm     78% 0.00 in
23:39 58.1 °F 51.3 °F 29.90 in Calm     78% 0.00 in
23:44 57.8 °F 51.3 °F 29.90 in Calm     79% 0.00 in
23:49 57.5 °F 51.0 °F 29.91 in Calm     79% 0.00 in
23:54 57.5 °F 51.4 °F 29.91 in Calm   2.0 mph 80% 0.00 in
23:59 57.6 °F 51.5 °F 29.91 in Calm   2.0 mph 80% 0.00 in
Buffalo, New York, USA
Compliments of Weather Underground - 2.5 mb